Location: Jackson
(42.2460°N, 84.4010°W)
Time: 18:41:40
(UTC-04:00)

Courier 1B Rocket - Pass Details

Date: 15 February 2026
Orbit: 920 x 1201 km, 28.2° (Epoch: 12 March)

Event Time Altitude Azimuth Distance (km) Brightness Sun altitude
Rises 01:55:27 0° 253° (WSW) 3,809 - -57.3°
Reaches altitude 10° 01:59:44 10° 229° (SW) 2,919 - -56.9°
Maximum altitude 02:03:01 14° 201° (SSW) 2,697 - -56.6°
Drops below altitude 10° 02:06:24 10° 174° (S) 3,008 - -56.3°
Sets 02:10:58 0° 150° (SSE) 4,019 - -55.8°
